This is the latest recevied weather packets stored in our database for station/object KF4PPJ. If no packets are shown the sender has not sent any weather packets the latest 1 day(s).
| Time | Temp. | Humidity | Pressure | Rain* | Wind** | Luminosity | Snow |
|---|---|---|---|---|---|---|---|
| 1778020116 | 17.22° C | 70% | 1019 hPa | 0 mm | 0.45 m/s, 184° | 366 W/m² | - |
| 1778019812 | 16.67° C | 70% | 1019.1 hPa | 0 mm | 2.24 m/s, 178° | 330 W/m² | - |
| 1778019510 | 16.11° C | 72% | 1018.9 hPa | 0 mm | 0.45 m/s, 197° | 335 W/m² | - |
| 1778019206 | 16.11° C | 72% | 1019 hPa | 0 mm | 1.34 m/s, 142° | 329 W/m² | - |
| 1778018903 | 16.67° C | 71% | 1019.1 hPa | 0 mm | 1.34 m/s, 172° | 311 W/m² | - |
| 1778018600 | 16.11° C | 72% | 1019.4 hPa | 0 mm | 1.34 m/s, 149° | 290 W/m² | - |
| 1778018298 | 16.11° C | 74% | 1019.2 hPa | 0 mm | 0.89 m/s, 194° | 268 W/m² | - |
| 1778017996 | 16.11° C | 72% | 1019.5 hPa | 0 mm | 0.89 m/s, 213° | 262 W/m² | - |
| 1778017694 | 16.11° C | 72% | 1019.2 hPa | 0 mm | 1.79 m/s, 172° | 264 W/m² | - |
| 1778017391 | 16.11° C | 72% | 1019.3 hPa | 0 mm | 2.24 m/s, 175° | 270 W/m² | - |
| 1778017088 | 16.11° C | 72% | 1019.3 hPa | 0 mm | 5.81 m/s, 178° | 291 W/m² | - |
| 1778016786 | 16.11° C | 72% | 1019.4 hPa | 0 mm | 2.68 m/s, 200° | 304 W/m² | - |
| 1778016481 | 16.11° C | 72% | 1019.4 hPa | 0 mm | 2.24 m/s, 200° | 318 W/m² | - |
| 1778016179 | 16.11° C | 73% | 1019.4 hPa | 0 mm | 2.68 m/s, 187° | 301 W/m² | - |
| 1778015875 | 15.56° C | 73% | 1019 hPa | 0 mm | 2.24 m/s, 156° | 284 W/m² | - |
| 1778015573 | 15.56° C | 74% | 1019.3 hPa | 0 mm | 2.68 m/s, 190° | 277 W/m² | - |
| 1778015269 | 15.56° C | 74% | 1019.4 hPa | 0 mm | 2.68 m/s, 214° | 271 W/m² | - |
| 1778014966 | 15.56° C | 74% | 1019.5 hPa | 0 mm | 2.24 m/s, 164° | 283 W/m² | - |
| 1778014663 | 15.56° C | 74% | 1019.5 hPa | 0 mm | 2.24 m/s, 166° | 290 W/m² | - |
| 1778014361 | 15.56° C | 74% | 1019.4 hPa | 0 mm | 0.89 m/s, 174° | 295 W/m² | - |
| 1778014057 | 15.56° C | 75% | 1019.6 hPa | 0 mm | 0.89 m/s, 180° | 266 W/m² | - |
| 1778013756 | 15.56° C | 74% | 1019.6 hPa | 0 mm | 0.45 m/s, 156° | 249 W/m² | - |
| 1778013452 | 15.56° C | 74% | 1019.5 hPa | 0 mm | 1.79 m/s, 150° | 245 W/m² | - |
| 1778013149 | 15.56° C | 75% | 1019.3 hPa | 0 mm | 0 m/s | 243 W/m² | - |
| 1778012845 | 15° C | 76% | 1019.5 hPa | 0 mm | 1.79 m/s, 201° | 247 W/m² | - |
* Rain latest hour (hover to see other rain measurements)
** Current wind speed in m/s (hover to see current wind gust speed)